Weather

DAILY 7 DAY TOTAL
onrain

Note: Some stations are located near irrigated fields and may also report irrigation

Alliston Mount Forest Blyth Guelph Grand Bend Strathroy Woodstock Belmont Simcoe Leamington Chatham West Lorne






Leamington-Base - Historical Weather Data
Date Max Temp (°C) Min Temp (°C) Avg Temp (°C) Rain (mm) 7Day Rain(mm) Total Rain(mm) Avg RH (%)
5/22/2019 18.0 8.9 12.3 4.2 18.8 69.6 77.2
5/21/2019 17.2 3.3 10.8 0.0 14.6 65.4 73.0
5/20/2019 16.4 7.7 13.5 0.0 14.6 65.4 77.2
5/19/2019 27.8 11.5 18.2 4.4 18.4 65.4 84.9
5/18/2019 17.0 8.2 12.3 10.2 23.8 61.0 79.9
5/17/2019 16.9 11.4 14.4 0.0 13.6 50.8 76.7
5/16/2019 24.4 7.3 16.6 0.0 16.2 50.8 68.3
5/15/2019 23.4 8.0 15.1 0.0 26.8 50.8 60.7
5/14/2019 19.6 3.5 11.5 0.0 26.8 50.8 69.3
5/13/2019 9.5 5.5 7.1 3.8 28.0 50.8 87.9
5/12/2019 11.5 6.3 8.2 9.8 24.2 47.0 85.2
5/11/2019 13.0 3.7 8.4 0.0 14.4 37.2 71.5
5/10/2019 14.8 6.0 12.0 2.6 14.6 37.2 75.9
5/9/2019 22.1 8.1 14.4 10.6 20.8 34.6 85.7
5/8/2019 13.0 5.0 9.0 0.0 14.4 24.0 63.1
5/7/2019 8.9 4.8 7.0 1.2 24.0 24.0 82.2
5/6/2019 25.6 7.7 15.6 0.0 24.4 22.8 70.7
5/5/2019 18.1 3.7 10.7 0.0 29.0 22.8 81.6
5/4/2019 12.1 4.8 7.9 0.2 33.8 22.8 88.0
5/3/2019 9.4 5.3 7.0 8.8 37.2 22.6 94.9
5/2/2019 14.2 6.0 9.3 4.2 55.6 13.8 95.7
5/1/2019 20.7 6.3 11.5 9.6 55.8 9.6 90.0